Location: Stonelick Lake State Park
(39.2170°N, 84.0850°W)
Time: 18:10:00
(UTC-05:00)

Daily predictions for brighter satellites

Satellite Brightness Start Highest point End
(mag) Time Altitude Azimuth Time Altitude Azimuth Time Altitude Azimuth
Cosmos 468 Rocket 4.1 17:42:24 10° N 17:47:30 55° ENE 17:52:31 10° SSE
ERBS 3.4 17:46:29 10° NNW 17:49:27 27° NE 17:52:24 10° E
COSMOS 2406 3.2 17:43:58 10° NNW 17:49:44 75° ENE 17:55:25 10° SSE
ERS-2 3.5 17:47:11 10° ESE 17:49:53 19° ENE 17:52:35 10° NNE
Cosmos 1844 Rocket 3.0 17:44:24 10° SSW 17:50:03 74° WNW 17:55:41 10° NNE
CZ-2C R/B 4.1 17:48:06 10° NNE 17:52:21 41° E 17:56:38 10° S
Tsikada Rocket 4.0 17:47:10 10° N 17:53:18 67° E 17:59:26 10° SSE
COSMOS 2455 2.9 17:47:44 10° SSW 17:53:42 72° ESE 17:59:42 10° NNE
Timation 1 Rocket 4.4 17:52:11 10° S 17:58:03 61° ESE 18:03:59 10° NNE
COSMO-SKYMED 1 3.5 17:58:08 10° NE 18:01:51 27° E 18:05:32 10° SSE
YAOGAN 1 3.0 17:58:31 10° SE 18:02:30 38° ENE 18:06:31 10° N
BREEZE-M R/B 3.5 18:02:07 10° NNW 18:04:27 25° NNE 18:07:11 13° E
CZ-4 R/B 1.3 18:02:40 10° SSE 18:06:30 58° ENE 18:10:17 10° N
CSL-04 Debris 4.2 18:01:59 10° SSE 18:07:25 88° WSW 18:12:52 10° NNW
Cosmos 1763 Rocket 3.6 18:04:15 10° N 18:09:19 50° ENE 18:14:17 10° SE
Meteor 1-26 Rocket 4.2 18:03:48 10° S 18:09:23 72° E 18:14:54 10° NNE
Centaur D AC-28 4.0 18:06:29 10° SSW 18:10:20 28° SSE 18:20:53 10° E
USA 116 3.9 18:06:24 10° NNE 18:10:57 64° E 18:14:53 10° S
Cosmos 2346 Rocket 4.4 18:06:09 10° N 18:12:17 67° E 18:18:25 10° SSE
FENGYUN 3A 4.5 18:09:03 10° ESE 18:13:34 28° ENE 18:18:06 10° N
Cosmos 1844 4.3 18:10:20 10° SW 18:16:01 60° WNW 18:21:46 10° NNE
ALOS 3.1 18:13:11 10° SE 18:17:05 27° ENE 18:21:00 10° NNE
Cosmos 1814 Rocket 4.0 18:12:57 10° NNW 18:18:19 68° ENE 18:23:37 10° SSE
Cosmos 1833 Rocket 3.7 18:14:17 10° N 18:18:52 25° NE 18:23:09 11° ESE
Cosmos 2278 Rocket 2.2 18:16:13 10° SSW 18:21:51 74° ESE 18:27:32 10° NNE
SL-27 R/B 3.3 18:21:01 10° N 18:23:51 25° ENE 18:24:59 21° E
Cosmos 1703 Rocket 3.8 18:19:46 10° SSE 18:24:02 46° E 18:28:19 10° NNE
Centaur D AC-29 3.7 18:19:02 10° WSW 18:25:00 19° SSW 18:28:07 10° SSE
SMAP 3.7 18:22:34 10° S 18:27:09 60° W 18:31:46 10° NNW
Ariane Rocket 3.9 18:25:46 10° S 18:30:43 52° W 18:35:41 10° NNW
Cosmos 1464 Rocket 4.3 18:25:50 10° SSE 18:31:29 41° E 18:37:11 10° NNE
Cosmos 1633 3.1 18:28:08 10° N 18:31:33 36° ENE 18:34:57 10° SSE
Okean 2 Rocket 4.1 18:29:19 10° NNE 18:33:06 25° ENE 18:36:52 10° SE
Cosmos 1484 Rocket 4.2 18:30:34 10° S 18:34:10 40° W 18:37:52 10° NNW
Meteor 1-28 Rocket 4.3 18:35:44 10° N 18:39:17 44° WNW 18:42:48 10° SSW
Cosmos 540 Rocket 3.9 18:36:53 10° N 18:41:42 37° ENE 18:46:03 12° SE
Cosmos 1606 2.6 18:38:20 10° S 18:42:04 63° E 18:45:11 14° NNE
USA 234 3.2 18:36:48 16° NE 18:42:10 82° SE 18:48:43 10° SW
Cosmos 841 Rocket 3.4 18:37:45 10° NNW 18:43:03 76° ENE 18:48:18 10° SSE
Cosmos 1486 Rocket 4.0 18:39:39 10° SSW 18:44:52 82° WNW 18:50:08 10° NNE
EO 1 Del DPAF 3.1 18:41:59 10° NNE 18:45:50 88° ESE 18:49:38 10° SSW
Meteor 2-6 Rocket 4.2 18:43:53 10° S 18:49:08 53° E 18:54:30 10° NNE
Atlas 2A Centaur Rocket 4.5 18:31:48 10° WSW 18:49:36 33° SSW 18:53:42 14° SE
Cosmos 1782 2.7 18:45:53 10° S 18:49:54 78° E 18:53:34 12° N
SKYMED 2 3.6 18:45:39 10° N 18:50:01 84° W 18:54:21 10° SSW
Cosmos 1908 Rocket 3.7 18:46:25 10° NNW 18:50:45 74° W 18:55:03 10° S
Meteor 1-25 Rocket 4.5 18:48:04 10° NNW 18:53:55 76° W 18:59:41 10° S
SPOT 3 Rocket 3.4 18:49:31 10° SSE 18:54:43 77° ENE 18:59:57 10° N
BREEZE-M DEB (TANK) 2.2 18:54:35 10° WSW 18:56:38 57° NNW 18:56:41 57° NNW
Sich 1 Rocket 3.7 18:53:49 10° N 18:58:14 75° W 19:02:40 10° S
Meteor 1-20 Rocket 4.3 18:52:59 10° NNW 18:58:34 76° W 19:04:01 10° S
Cosmos 1354 Rocket 3.9 18:55:10 10° S 19:00:25 70° ESE 19:03:33 25° NNE
Lacrosse 5 4.2 18:58:56 10° NW 19:00:50 12° NNW 19:02:44 10° N
CZ-4C R/B 3.6 18:55:06 10° NNW 19:01:13 30° NE 19:02:17 29° ENE
Cosmos 2082 Rocket 2.2 18:57:19 10° NNW 19:02:54 54° ENE 19:05:55 26° SE
NOAA 12 4.0 18:59:03 10° SSE 19:04:23 82° ENE 19:09:43 10° NNW
FengYun 1-2 T 4.4 19:03:37 25° SE 19:06:27 45° ENE 19:11:42 10° N
Cosmos 405 Rocket 3.5 19:07:29 10° S 19:10:02 38° SSE 19:10:02 38° SSE
Cosmos 44 Rocket 4.5 19:07:28 10° NNW 19:10:24 27° NNE 19:10:24 27° NNE
Meteor 1-27 Rocket 3.8 19:07:16 10° S 19:12:59 56° E 19:15:38 31° NNE
Cosmos 1513 Rocket 4.4 19:09:18 10° S 19:15:39 84° E 19:21:55 10° N
Meteor 1-10 Rocket 4.3 19:14:28 10° SSW 19:20:06 76° W 19:25:53 10° N
ERS-2 4.5 19:20:19 10° SSW 19:23:23 25° W 19:26:28 10° NW
Okean 1-7 3.9 19:21:17 10° SSW 19:25:32 49° W 19:29:04 14° N
ERBS 4.4 19:23:06 10° WNW 19:25:58 25° SW 19:27:00 21° SSW
Cosmos 1891 Rocket 4.5 19:21:23 10° S 19:27:35 80° W 19:33:43 10° N
Thor Agena Rocket 3.4 19:30:42 73° SE 19:30:42 73° SE 19:35:35 10° S
Cosmos 2034 Rocket 4.3 19:40:46 10° SSW 19:47:05 66° W 19:53:25 10° N
Nadezhda 4 Rocket 3.8 19:42:54 10° N 19:49:04 89° ENE 19:55:11 10° S
Meteor 1-11 Rocket 3.8 19:45:36 10° NNW 19:51:29 77° W 19:53:03 50° S
ALOS 4.2 19:50:23 10° SSW 19:54:25 29° W 19:58:28 10° NW
Cosmos 1833 Rocket 3.6 19:57:39 10° NW 20:03:00 46° WSW 20:05:02 33° SSW
USA 234 4.3 20:24:09 33° NNW 20:24:45 34° NNW 20:30:29 10° W
Cosmos 2082 Rocket 4.5 20:42:30 10° NW 20:46:29 20° W 20:47:57 18° WSW
CZ-4C R/B 3.8 20:43:05 10° NW 20:47:31 41° NW 20:47:31 41° NW
